Weather History for El Centro, CA

Change the Weather History Date:

Friday, October 19, 2012

  Actual Average Record
Temperature  
Mean Temperature 80 °F -  
Max Temperature 95 °F 86 °F 97 °F (2008)
Min Temperature 66 °F 60 °F 52 °F (2006)
Cooling Degree Days 14    
Growing Degree Days 30 (Base 50)    
Moisture  
Dew Point 51 °F    
Average Humidity 40    
Maximum Humidity 68    
Minimum Humidity 18    
Precipitation  
Precipitation 0.00 in - - ()
Sea Level Pressure  
Sea Level Pressure 29.87 in    
Wind  
Wind Speed 4 mph (WSW)    
Max Wind Speed 10 mph    
Max Gust Speed -    
Visibility 10 miles    
Events      
Averages and records for this station are not official NWS values.
T = Trace of Precipitation, MM = Missing Value Source: NWS Daily Summary

Daily Weather History Graph

Daily Weather History Graph

Search for Another Location

Airport:

Trip Planner

Search our weather history database for the weather conditions in past years. The results will help you decide how hot, cold, wet, or windy it might be!

Date:

Astronomy

Oct. 19, 2012 Rise Set
Actual Time 6:50 AM PDT 6:04 PM PDT
Civil Twilight 6:25 AM PDT 6:29 PM PDT
Nautical Twilight 5:56 AM PDT 6:57 PM PDT
Astronomical Twilight 5:27 AM PDT 7:26 PM PDT
Moon 11:26 AM PDT (10/19) 9:57 PM PDT (10/19)
Length of Visible Light 12h 03m
Length of Day
11h 13m
Waxing Crescent, 24% of the Moon is Illuminated
Oct 19
Waxing Crescent
Oct 21
First Quarter
Oct 29
Full
Nov 6
Last Quarter
Nov 13
New

Hourly Weather History & Observations

Time (PDT) Temp. Heat Index Dew Point Humidity Pressure Visibility Wind Dir Wind Speed Gust Speed Precip Events Conditions
12:56 AM 75.0 °F - 55.9 °F 51% 29.94 in 10.0 mi West 5.8 mph - N/A   Clear
1:56 AM 72.0 °F - 55.0 °F 55% 29.94 in 10.0 mi West 5.8 mph - N/A   Clear
2:56 AM 72.0 °F - 55.9 °F 57% 29.93 in 10.0 mi West 3.5 mph - N/A   Clear
3:56 AM 70.0 °F - 55.0 °F 59% 29.92 in 10.0 mi Calm Calm - N/A   Clear
4:56 AM 70.0 °F - 55.0 °F 59% 29.92 in 10.0 mi Calm Calm - N/A   Clear
5:56 AM 68.0 °F - 55.0 °F 63% 29.92 in 10.0 mi WSW 4.6 mph - N/A   Clear
6:56 AM 66.0 °F - 55.0 °F 68% 29.93 in 10.0 mi West 5.8 mph - N/A   Clear
7:56 AM 70.0 °F - 55.9 °F 61% 29.94 in 10.0 mi WSW 4.6 mph - N/A   Clear
8:56 AM 77.0 °F - 55.9 °F 48% 29.95 in 10.0 mi West 3.5 mph - N/A   Clear
9:56 AM 84.0 °F 83.0 °F 55.9 °F 38% 29.94 in 10.0 mi NW 3.5 mph - N/A   Clear
10:56 AM 89.1 °F - 52.0 °F 28% 29.94 in 10.0 mi North 8.1 mph - N/A   Partly Cloudy
11:56 AM 91.0 °F 88.5 °F 53.1 °F 27% 29.91 in 10.0 mi Variable 4.6 mph - N/A   Partly Cloudy
12:56 PM 91.9 °F - 51.1 °F 25% 29.88 in 10.0 mi Calm Calm - N/A   Partly Cloudy
1:56 PM 93.9 °F - 46.9 °F 20% 29.84 in 10.0 mi Calm Calm - N/A   Partly Cloudy
2:56 PM 93.9 °F - 46.0 °F 19% 29.82 in 10.0 mi Variable 3.5 mph - N/A   Partly Cloudy
3:56 PM 93.9 °F - 46.0 °F 19% 29.81 in 10.0 mi ESE 4.6 mph - N/A   Partly Cloudy
4:56 PM 93.9 °F - 44.1 °F 18% 29.79 in 10.0 mi ESE 3.5 mph - N/A   Partly Cloudy
5:56 PM 89.1 °F - 46.0 °F 22% 29.79 in 10.0 mi South 6.9 mph - N/A   Partly Cloudy
6:56 PM 84.0 °F - 46.9 °F 27% 29.78 in 10.0 mi South 6.9 mph - N/A   Clear
7:56 PM 80.1 °F - 48.0 °F 32% 29.79 in 10.0 mi SW 6.9 mph - N/A   Clear
8:56 PM 77.0 °F - 46.0 °F 33% 29.80 in 10.0 mi Calm Calm - N/A   Clear
9:56 PM 77.0 °F - 50.0 °F 39% 29.81 in 10.0 mi WSW 3.5 mph - N/A   Clear
10:56 PM 78.1 °F - 52.0 °F 40% 29.80 in 10.0 mi WSW 10.4 mph - N/A   Clear
11:56 PM 75.0 °F - 51.1 °F 43% 29.80 in 10.0 mi WNW 5.8 mph - N/A   Clear